Location: Bushrod
(6.3500°N, 10.7833°W)
Time: 09:51:27
(UTC+00:00)

CZ-4 R/B - Pass Details

Date: 17 September 2019
Orbit: 532 x 599 km, 97.8° (Epoch: 19 October)

Event Time Altitude Azimuth Distance (km) Brightness Sun altitude
Rises 19:31:27 0° 174° (S) 2,671 4.7 -13.1°
Reaches altitude 10° 19:33:35 10° 178° (S) 1,777 3.9 -13.6°
Maximum altitude 19:37:21 61° 258° (WSW) 601 1.8 -14.6°
Drops below altitude 10° 19:41:09 10° 340° (NNW) 1,776 4.2 -15.5°
Sets 19:43:16 0° 343° (NNW) 2,670 5.1 -16.0°
